sat.trackr.live / text

‹ back to catalog

TOMORROW-S10

NORAD 67398 · 2026-004AM

PAYLOAD ACTIVE UNKNOWN

§ Identity

Operator
Country
US
Launch date
2026-01-11
Launch site
AFWTR
Launch vehicle
Mass (kg)
RCS (m²)

External: N2YO · Heavens-Above · Gunter

§ Orbital elements

Epoch: 2026-05-24T22:27:37.935936Z

Period
94.80 min
Inclination
97.4560°
Eccentricity
0.0008540
Mean motion
15.18931079 rev/d
Perigee alt
503.2 km
Apogee alt
515.0 km
Semi-major
6,887.2 km
B*
1.7937e-4
RAAN
144.4452°
Arg perigee
74.5494°
Mean anomaly
285.6684°
Rev number
2,023

§ Raw data

TOMORROW-S101 67398U 26004AM  26144.93585574  .00003680  00000+0  17937-3 0  99942 67398  97.4560 144.4452 0008540  74.5494 285.6684 15.18931079 20230

JSON: /api/v1/satellites/67398 · /tle

For live sub-satellite position, see the globe view (requires WebGL).

§ Visibility from observer

Set your observer location to see the next 7 days of passes ≥ 10°. The values pass through the URL so the page stays shareable.

No JS? Fill the form by hand. The geolocation button needs JavaScript.